TimeEST,TemperatureF,Dew PointF,Humidity,Sea Level PressureIn,VisibilityMPH,Wind Direction,Wind SpeedMPH,Gust SpeedMPH,PrecipitationIn,Events,Conditions,WindDirDegrees,DateUTC
12:53 AM,34.0,21.9,61,30.02,10.0,North,5.8,-,N/A,,Partly Cloudy,360,2013-01-02 05:53:00
1:53 AM,33.1,21.9,64,30.03,10.0,NE,5.8,-,N/A,,Overcast,40,2013-01-02 06:53:00
2:53 AM,32.0,21.0,64,30.05,10.0,North,5.8,-,N/A,,Overcast,360,2013-01-02 07:53:00
3:53 AM,32.0,21.0,64,30.03,10.0,North,3.5,-,N/A,,Scattered Clouds,10,2013-01-02 08:53:00
4:53 AM,30.9,19.0,61,30.04,10.0,North,8.1,-,N/A,,Clear,360,2013-01-02 09:53:00
5:53 AM,30.0,19.0,64,30.05,10.0,North,8.1,-,N/A,,Clear,360,2013-01-02 10:53:00
7:53 AM,28.0,17.1,63,30.11,10.0,NNW,8.1,-,N/A,,Clear,340,2013-01-02 12:53:00
8:53 AM,28.9,17.1,61,30.12,10.0,NNW,8.1,-,N/A,,Clear,330,2013-01-02 13:53:00
10:53 AM,30.9,15.1,52,30.15,10.0,WNW,9.2,-,N/A,,Partly Cloudy,300,2013-01-02 15:53:00
11:53 AM,32.0,16.0,52,30.14,10.0,WNW,8.1,-,N/A,,Clear,300,2013-01-02 16:53:00
12:53 PM,33.1,15.1,48,30.12,10.0,West,9.2,-,N/A,,Clear,280,2013-01-02 17:53:00
1:53 PM,34.0,14.0,44,30.12,10.0,NNW,6.9,-,N/A,,Clear,330,2013-01-02 18:53:00
2:24 PM,35.6,12.2,38,30.10,1.5,NNW,9.2,-,N/A,,Haze,330,2013-01-02 19:24:00
2:35 PM,35.6,12.2,38,30.11,3.0,NW,11.5,-,N/A,,Haze,320,2013-01-02 19:35:00
2:53 PM,35.1,12.0,39,30.12,10.0,NNW,13.8,19.6,N/A,,Clear,330,2013-01-02 19:53:00
3:53 PM,35.1,10.9,37,30.14,10.0,NNW,8.1,-,N/A,,Clear,330,2013-01-02 20:53:00
4:53 PM,33.1,10.0,38,30.16,10.0,NNW,8.1,-,N/A,,Clear,330,2013-01-02 21:53:00
5:53 PM,30.0,10.0,43,30.18,10.0,North,5.8,-,N/A,,Clear,10,2013-01-02 22:53:00
6:53 PM,28.9,10.9,47,30.20,10.0,North,4.6,-,N/A,,Clear,10,2013-01-02 23:53:00
7:53 PM,28.0,12.0,51,30.21,10.0,NNE,4.6,-,N/A,,Clear,20,2013-01-03 00:53:00
8:53 PM,28.0,10.9,49,30.21,10.0,Calm,Calm,-,N/A,,Clear,0,2013-01-03 01:53:00
9:53 PM,25.0,14.0,63,30.23,10.0,Calm,Calm,-,N/A,,Clear,0,2013-01-03 02:53:00
10:53 PM,24.1,14.0,65,30.25,10.0,Calm,Calm,-,N/A,,Clear,0,2013-01-03 03:53:00
11:53 PM,24.1,14.0,65,30.24,10.0,Calm,Calm,-,N/A,,Clear,0,2013-01-03 04:53:00